Location: Kapuskasing
(49.3803°N, 82.4001°W)
Time: 10:54:56
(UTC-04:00)

Envisat - Pass Details

Date: 20 March 2026
Orbit: 761 x 762 km, 98.4° (Epoch: 11 April)

Event Time Altitude Azimuth Distance (km) Brightness Sun altitude
Rises 03:52:38 0° 18° (NNE) 3,236 7.1 -32.8°
Reaches altitude 10° 03:55:01 10° 23° (NNE) 2,305 6.2 -32.6°
Enters shadow 03:58:57 45° 60° (ENE) 1,034 3.9 -32.1°
